Regional Weather Roundup
Issued by NWS Upton, NY

Current Version | Previous Version | Graphics & Text | Print | Product List | Glossary Off
Versions: 1 2 3 4 5 6 7 8 9 10 11 12 13 14 15 16 17 18 19 20 21 22 23 24 25 26 27 28 29 30 31 32 33 34 35 36 37 38 39 40 41 42 43 44 45 46 47 48 49 50

000
ASUS41 KOKX 300805
RWROKX

REGIONAL WEATHER ROUNDUP
NATIONAL WEATHER SERVICE NEW YORK NY
400 AM EDT SAT AUG 30 2014

NOTE: "FAIR" INDICATES FEW OR NO CLOUDS BELOW 12,000 FEET WITH NO
SIGNIFICANT WEATHER AND/OR OBSTRUCTIONS TO VISIBILITY.

NYZ071-072-176-178-NJZ106-104-300900-
NEW YORK CITY METRO AREA


CITY           SKY/WX    TMP DP  RH WIND       PRES   REMARKS
CENTRAL PARK   CLEAR     67  54  63 CALM      30.28S
LAGUARDIA APRT MOCLDY    68  55  63 CALM      30.25S
KENNEDY INTL   MOCLDY    68  56  65 S3        30.26S
NEWARK/LIBERTY MOCLDY    65  55  70 CALM      30.25S
BRNX BOT. GARD   N/A     61  55  82 NE1       30.27S
TETERBORO      PTCLDY    60  54  80 NW3       30.25R
$$

NYZ177-179-078>081-300900-
LONG ISLAND NEW YORK

CITY           SKY/WX    TMP DP  RH WIND       PRES   REMARKS
FARMINGDALE    MOCLDY    60  56  86 N5        30.26S
ISLIP          PTCLDY    60  55  83 CALM      30.25S
SHIRLEY        CLEAR     54  52  93 CALM      30.27S
WESTHAMPTON    CLEAR     50  45  83 CALM      30.29S
MONTAUK POINT    N/A     59  54  83 CALM      30.29S
$$

NYZ052-065-067-300900-
HUDSON VALLEY

CITY           SKY/WX    TMP DP  RH WIND       PRES   REMARKS
WHITE PLAINS   PTCLDY    59  54  83 CALM      30.26S
NEWBURGH       PTCLDY    57  55  94 CALM      30.28
MONTGOMERY     CLEAR     51  49  92 CALM      30.26S
POUGHKEEPSIE   CLEAR     56  53  90 CALM      30.26R
ALBANY         CLEAR     60  54  80 S6        30.25R
$$

NJZ001-105-106-008-010-013-015-019>022-104-300900-
NEW JERSEY

CITY           SKY/WX    TMP DP  RH WIND       PRES   REMARKS
NEWARK/LIBERTY MOCLDY    65  55  70 CALM      30.25S
TETERBORO      PTCLDY    60  54  80 NW3       30.25R
CALDWELL       CLEAR     56  52  86 CALM      30.26S
MORRISTOWN     FOG       52  48  87 CALM      30.26F VSB 1
SOMERVILLE     CLEAR     54  51  90 CALM      30.24F
LINDEN         FAIR      65  58  78 NW3       30.27S
SUSSEX         CLEAR     53  50  89 CALM      30.27R
ANDOVER          N/A     53  52  96 CALM      30.27S
TRENTON        CLEAR     57  54  89 CALM      30.25S
MILLVILLE      CLEAR     53  52  96 CALM      30.24S
ATLANTIC CITY  PTCLDY    55  53  93 CALM      30.24S
WRIGHTSTOWN    CLEAR     55  54  99 NE2       30.23S
TOMS RIVER     CLEAR     50  46  87 CALM      30.25S
BELMAR         CLEAR     57  48  72 CALM      30.25S
$$

PAZ047>061-062-071-300900-
EASTERN PENNSYLVANIA

CITY           SKY/WX    TMP DP  RH WIND       PRES   REMARKS
PHILADELPHIA   PTCLDY    63  58  83 CALM      30.25S
ALLENTOWN      CLEAR     57  54  89 CALM      30.26R
SCRANTON       MOCLDY    63  57  81 SW6       30.24S
$$

CTZ002-004>006-009-010-012-RIZ004-006-007-MAZ004-011-015-300900-
SOUTHERN NEW ENGLAND
 IN CT

CITY           SKY/WX    TMP DP  RH WIND       PRES   REMARKS
BRADLEY INTL   PTCLDY    57  53  86 CALM      30.26F
HARTFORD       CLEAR     57  54  89 CALM      30.27S
DANBURY        CLEAR     53  51  93 CALM      30.29R
WTRBRY/OXFORD  CLEAR     55  52  88 CALM      30.29S
BRIDGEPORT     PTCLDY    68  59  73 S10       30.27R
MERIDEN        CLEAR     53  50  89 CALM      30.28S
NEW HAVEN      MOCLDY    66  58  75 S5        30.27S
CHESTER        FAIR      55  54  94 CALM      30.29S
GROTON         CLEAR     54  54 100 N3        30.27S
WILLIMANTIC    MOCLDY    53  50  89 CALM      30.29S

 IN RI

CITY           SKY/WX    TMP DP  RH WIND       PRES   REMARKS
PROVIDENCE     CLEAR     57  54  89 W3        30.30S
BLOCK ISLAND   CLEAR     59  52  77 SE3       30.28S
WESTERLY       CLEAR     53  51  93 N3        30.29S

 IN MA

CITY           SKY/WX    TMP DP  RH WIND       PRES   REMARKS
BOSTON         CLEAR     59  55  87 S5        30.29S
WORCESTER      MOCLDY    56  55  97 SW8       30.29S
WESTFIELD      CLEAR     55  52  89 CALM      30.27S
PROVINCETOWN   CLEAR     48  45  87 S5        30.31S
NANTUCKET      CLEAR     47  44  90 E3        30.31S
$$

ANZ330-335-338-340-345-350-353-355-300900-
COASTAL MARINE OBSERVATIONS


STATION/POSITION TIME  SKY/WX   TEMP    WIND        PRES    VSBY  WAVE
                                AIR SEA DIR/SP/G                  HT/PER
                 (UTC)          (F)     (DEG/KT/KT) (MB)    (MI)  (FT/S)
NY HARB ENTRANCE NOT AVBL
4S FIRE IS       NOT AVBL
23SW MTP         0800                                 N/A           3/ 8
HUDSON CANYON    0800            70 72  130/  8/ 10 1024.3          3/ 8
EXECUTION ROCKS  0800            67 73  110/  6/  6   N/A
WESTERN LI SOUND 0800            68     150/  4/  6   N/A           0
CENTRAL LI SOUND 0700            68 72  170/ 10/ 12   N/A           1/ 2
EASTERN LI SOUND 0700            67 68  160/  8/ 10   N/A
ROBBINS REEF     0800            68     220/  5/  7   N/A
$$


>>>>>>>>>>>>>>>>>>>>>>>>>>>> KEY <<<<<<<<<<<<<<<<<<<<<<<<<<<
>                                                          <
>     SKY/WX - SKY CONDITION/PRESENT WEATHER               <
>     TMP    - TEMPERATURE IN FAHRENHEIT                   <
>     DP     - DEWPOINT IN FAHRENHEIT                      <
>     RH     - RELATIVE HUMIDITY IN PERCENT                <
>     WIND   - DIRECTION AND SPEED IN MPH                  <
>     PRES   - MEAN SEA LEVEL PRESSURE IN INCHES OF HG     <
>     WCI    - WIND CHILL INDEX                            <
>     VSB    - VISIBILITY IN MILES                         <
>     HX     - HEAT INDEX                                  <
>     TC     - TEMPERATURE IN CELSIUS                      <
>     VRB    - VARIABLE WIND DIRECTION                     <
>                                                          <
>>>>>>>>>>>>>>>>>>>>>>>>>>>> KEY <<<<<<<<<<<<<<<<<<<<<<<<<<<





USA.gov is the U.S. government's official web portal to all federal, state and local government web resources and services.